Time,TemperatureF,DewpointF,PressureIn,WindDirection,WindDirectionDegrees,WindSpeedMPH,WindSpeedGustMPH,Humidity,HourlyPrecipIn,Conditions,Clouds,dailyrainin,SoftwareType,DateUTC
2013-01-15 00:00:00,34.0,27.5,30.15,NE,45,3.4,3.4,77,0.00,,,0.00,WUHU216HW,2013-01-15 06:00:00,
2013-01-15 00:05:00,34.0,27.5,30.15,NE,45,3.4,3.4,77,0.00,,,0.00,WUHU216HW,2013-01-15 06:05:00,
2013-01-15 01:00:00,35.1,28.5,30.10,NE,45,8.7,8.7,77,0.00,,,0.00,WUHU216HW,2013-01-15 07:00:00,
2013-01-15 01:05:00,35.1,28.5,30.10,NE,45,8.7,8.7,77,0.00,,,0.00,WUHU216HW,2013-01-15 07:05:00,
2013-01-15 02:00:00,35.5,27.3,30.13,NNE,23,4.0,4.0,72,0.00,,,0.00,WUHU216HW,2013-01-15 08:00:00,
2013-01-15 02:05:00,35.5,27.3,30.13,NNE,23,4.0,4.0,72,0.00,,,0.00,WUHU216HW,2013-01-15 08:05:00,
2013-01-15 03:00:00,35.3,26.1,30.12,NNE,23,8.7,8.7,69,0.00,,,0.00,WUHU216HW,2013-01-15 09:00:00,
2013-01-15 03:05:00,35.3,26.1,30.12,NNE,23,8.7,8.7,69,0.00,,,0.00,WUHU216HW,2013-01-15 09:05:00,
2013-01-15 04:00:00,34.7,24.5,30.13,NE,45,3.8,3.8,66,0.00,,,0.00,WUHU216HW,2013-01-15 10:00:00,
2013-01-15 04:05:00,34.7,24.5,30.13,NE,45,3.8,3.8,66,0.00,,,0.00,WUHU216HW,2013-01-15 10:05:00,
2013-01-15 05:00:00,33.8,24.7,30.12,NNE,23,8.5,8.5,69,0.00,,,0.00,WUHU216HW,2013-01-15 11:00:00,
2013-01-15 05:05:00,33.8,24.7,30.12,NNE,23,8.5,8.5,69,0.00,,,0.00,WUHU216HW,2013-01-15 11:05:00,
2013-01-15 06:00:00,32.0,27.2,30.10,NNE,23,13.4,13.4,82,0.00,,,0.00,WUHU216HW,2013-01-15 12:00:00,
2013-01-15 06:05:00,32.0,27.2,30.12,NNE,23,9.2,13.4,82,0.00,,,0.00,WUHU216HW,2013-01-15 12:05:00,
2013-01-15 06:10:00,31.9,27.4,30.12,NNW,338,6.0,13.4,83,0.00,,,0.00,WUHU216HW,2013-01-15 12:10:00,
2013-01-15 06:15:00,31.9,27.4,30.12,NNE,23,4.0,9.8,83,0.00,,,0.00,WUHU216HW,2013-01-15 12:15:00,
2013-01-15 06:20:00,31.9,27.9,30.14,North,0,7.6,9.8,85,0.00,,,0.00,WUHU216HW,2013-01-15 12:20:00,
2013-01-15 06:25:00,31.7,27.7,30.13,North,0,4.7,11.4,85,0.00,,,0.00,WUHU216HW,2013-01-15 12:25:00,
2013-01-15 06:30:00,31.7,28.0,30.12,North,0,6.3,12.1,86,0.00,,,0.00,WUHU216HW,2013-01-15 12:30:00,
2013-01-15 06:35:00,31.7,28.3,30.12,NE,45,5.8,12.1,87,0.00,,,0.00,WUHU216HW,2013-01-15 12:35:00,
2013-01-15 06:40:00,31.7,28.6,30.15,NNW,338,9.2,9.2,88,0.00,,,0.00,WUHU216HW,2013-01-15 12:40:00,
2013-01-15 06:45:00,31.7,28.3,30.13,NNE,23,8.9,9.6,87,0.00,,,0.00,WUHU216HW,2013-01-15 12:45:00,
2013-01-15 06:50:00,31.3,27.9,30.14,NE,45,15.0,15.0,87,0.00,,,0.00,WUHU216HW,2013-01-15 12:50:00,
2013-01-15 06:55:00,31.3,27.9,30.13,NE,45,6.3,15.0,87,0.00,,,0.00,WUHU216HW,2013-01-15 12:55:00,
2013-01-15 07:00:00,31.3,28.5,30.14,North,0,7.6,13.4,89,0.00,,,0.00,WUHU216HW,2013-01-15 13:00:00,
2013-01-15 07:05:00,31.3,28.5,30.14,North,0,7.6,7.6,89,0.00,,,0.00,WUHU216HW,2013-01-15 13:05:00,
2013-01-15 08:00:00,30.8,28.5,30.13,ENE,68,10.7,10.7,91,0.00,,,0.00,WUHU216HW,2013-01-15 14:00:00,
2013-01-15 08:05:00,30.8,28.5,30.13,ENE,68,10.7,10.7,91,0.00,,,0.00,WUHU216HW,2013-01-15 14:05:00,
2013-01-15 09:00:00,30.8,28.5,30.13,ENE,68,13.0,13.0,91,0.00,,,0.00,WUHU216HW,2013-01-15 15:00:00,
2013-01-15 09:05:00,30.8,28.5,30.13,ENE,68,13.0,13.0,91,0.00,,,0.00,WUHU216HW,2013-01-15 15:05:00,
2013-01-15 10:00:00,31.1,28.9,30.15,ENE,68,0.0,0.0,91,0.00,,,0.00,WUHU216HW,2013-01-15 16:00:00,
2013-01-15 10:05:00,31.1,28.9,30.15,ENE,68,0.0,0.0,91,0.00,,,0.00,WUHU216HW,2013-01-15 16:05:00,
2013-01-15 11:00:00,31.1,28.9,30.13,ENE,68,0.0,0.0,91,0.00,,,0.00,WUHU216HW,2013-01-15 17:00:00,
2013-01-15 11:05:00,31.1,28.9,30.13,ENE,68,0.0,0.0,91,0.00,,,0.00,WUHU216HW,2013-01-15 17:05:00,
2013-01-15 12:00:00,31.5,29.5,30.13,ENE,68,0.0,0.0,92,0.00,,,0.00,WUHU216HW,2013-01-15 18:00:00,
2013-01-15 12:05:00,31.7,29.7,30.12,ENE,68,0.0,0.0,92,0.00,,,0.00,WUHU216HW,2013-01-15 18:05:00,
2013-01-15 12:10:00,31.7,29.7,30.12,ENE,68,0.0,0.0,92,0.00,,,0.00,WUHU216HW,2013-01-15 18:10:00,
2013-01-15 12:15:00,31.7,29.7,30.12,ENE,68,0.0,0.0,92,0.00,,,0.00,WUHU216HW,2013-01-15 18:15:00,
2013-01-15 12:20:00,31.7,29.7,30.12,ENE,68,0.0,0.0,92,0.00,,,0.00,WUHU216HW,2013-01-15 18:20:00,
2013-01-15 12:25:00,31.9,29.9,30.12,ENE,68,0.0,0.0,92,0.00,,,0.00,WUHU216HW,2013-01-15 18:25:00,
2013-01-15 12:30:00,31.9,29.9,30.11,ENE,68,0.0,0.0,92,0.00,,,0.00,WUHU216HW,2013-01-15 18:30:00,
2013-01-15 12:35:00,32.0,30.1,30.11,ENE,68,0.0,0.0,92,0.00,,,0.00,WUHU216HW,2013-01-15 18:35:00,
2013-01-15 12:40:00,32.0,30.1,30.11,ENE,68,0.0,0.0,92,0.00,,,0.00,WUHU216HW,2013-01-15 18:40:00,
2013-01-15 12:45:00,32.0,30.1,30.10,ENE,68,0.0,0.0,92,0.00,,,0.00,WUHU216HW,2013-01-15 18:45:00,
2013-01-15 12:50:00,32.0,30.2,30.10,ENE,68,0.0,0.0,93,0.00,,,0.00,WUHU216HW,2013-01-15 18:50:00,
2013-01-15 12:55:00,32.2,30.4,30.10,ENE,68,0.0,0.0,93,0.00,,,0.00,WUHU216HW,2013-01-15 18:55:00,
2013-01-15 13:00:00,32.4,30.6,30.11,ENE,68,0.0,0.0,93,0.00,,,0.00,WUHU216HW,2013-01-15 19:00:00,
2013-01-15 13:05:00,32.4,30.6,30.10,ENE,68,0.0,0.0,93,0.00,,,0.00,WUHU216HW,2013-01-15 19:05:00,
2013-01-15 13:10:00,32.6,30.8,30.10,ENE,68,0.0,0.0,93,0.00,,,0.00,WUHU216HW,2013-01-15 19:10:00,
2013-01-15 13:15:00,32.6,30.8,30.10,ENE,68,0.0,0.0,93,0.00,,,0.00,WUHU216HW,2013-01-15 19:15:00,
2013-01-15 13:20:00,32.6,30.8,30.10,ENE,68,0.0,0.0,93,0.00,,,0.00,WUHU216HW,2013-01-15 19:20:00,
2013-01-15 13:25:00,32.8,31.0,30.10,ENE,68,0.0,0.0,93,0.00,,,0.00,WUHU216HW,2013-01-15 19:25:00,
2013-01-15 13:30:00,32.8,31.0,30.09,ENE,68,0.0,0.0,93,0.00,,,0.00,WUHU216HW,2013-01-15 19:30:00,
2013-01-15 13:35:00,32.8,31.0,30.09,ENE,68,0.0,0.0,93,0.00,,,0.00,WUHU216HW,2013-01-15 19:35:00,
2013-01-15 13:40:00,32.9,31.2,30.10,ENE,68,0.2,0.2,93,0.01,,,0.01,WUHU216HW,2013-01-15 19:40:00,
2013-01-15 13:45:00,32.9,31.2,30.10,ENE,68,0.9,0.9,93,0.02,,,0.02,WUHU216HW,2013-01-15 19:45:00,
2013-01-15 13:50:00,32.9,31.2,30.10,ENE,68,3.4,3.4,93,0.02,,,0.02,WUHU216HW,2013-01-15 19:50:00,
2013-01-15 13:55:00,32.9,31.2,30.10,ENE,68,0.4,3.4,93,0.02,,,0.02,WUHU216HW,2013-01-15 19:55:00,
2013-01-15 14:00:00,33.1,31.3,30.09,ENE,68,2.7,4.5,93,0.03,,,0.03,WUHU216HW,2013-01-15 20:00:00,
2013-01-15 14:05:00,33.1,31.3,30.09,ENE,68,2.0,4.5,93,0.03,,,0.03,WUHU216HW,2013-01-15 20:05:00,
2013-01-15 14:10:00,33.3,31.4,30.09,ENE,68,3.8,4.0,93,0.03,,,0.03,WUHU216HW,2013-01-15 20:10:00,
2013-01-15 14:15:00,33.3,31.4,30.10,ENE,68,3.4,4.0,93,0.03,,,0.03,WUHU216HW,2013-01-15 20:15:00,
2013-01-15 14:20:00,33.3,31.4,30.09,ENE,68,2.9,5.1,93,0.03,,,0.03,WUHU216HW,2013-01-15 20:20:00,
2013-01-15 14:25:00,33.3,31.4,30.09,ENE,68,4.5,5.1,93,0.03,,,0.03,WUHU216HW,2013-01-15 20:25:00,
2013-01-15 14:30:00,33.5,31.6,30.09,ENE,68,5.4,5.4,93,0.03,,,0.03,WUHU216HW,2013-01-15 20:30:00,
2013-01-15 14:35:00,33.5,31.6,30.09,ENE,68,4.5,5.4,93,0.02,,,0.03,WUHU216HW,2013-01-15 20:35:00,
2013-01-15 14:40:00,33.7,32.0,30.09,ENE,68,3.8,8.1,94,0.04,,,0.05,WUHU216HW,2013-01-15 20:40:00,
2013-01-15 14:45:00,33.8,32.2,30.09,ENE,68,3.4,8.1,94,0.03,,,0.05,WUHU216HW,2013-01-15 20:45:00,
2013-01-15 14:50:00,33.7,32.0,30.09,ENE,68,2.0,6.5,94,0.03,,,0.05,WUHU216HW,2013-01-15 20:50:00,
2013-01-15 14:55:00,33.8,32.2,30.09,ENE,68,3.4,6.5,94,0.04,,,0.06,WUHU216HW,2013-01-15 20:55:00,
2013-01-15 15:00:00,33.8,32.2,30.09,ENE,68,3.4,4.0,94,0.03,,,0.06,WUHU216HW,2013-01-15 21:00:00,
2013-01-15 15:05:00,34.0,32.4,30.09,ENE,68,3.6,5.1,94,0.03,,,0.06,WUHU216HW,2013-01-15 21:05:00,
2013-01-15 15:10:00,34.0,32.4,30.09,ENE,68,2.7,6.9,94,0.03,,,0.06,WUHU216HW,2013-01-15 21:10:00,
2013-01-15 15:15:00,34.2,32.3,30.10,ENE,68,1.8,6.9,93,0.04,,,0.07,WUHU216HW,2013-01-15 21:15:00,
2013-01-15 15:20:00,34.2,32.3,30.10,ENE,68,8.7,8.7,93,0.04,,,0.07,WUHU216HW,2013-01-15 21:20:00,
2013-01-15 15:25:00,34.2,32.3,30.10,ENE,68,5.1,8.7,93,0.04,,,0.07,WUHU216HW,2013-01-15 21:25:00,
2013-01-15 15:30:00,34.4,32.5,30.10,ENE,68,7.4,7.6,93,0.04,,,0.07,WUHU216HW,2013-01-15 21:30:00,
2013-01-15 15:35:00,34.4,32.2,30.10,ENE,68,5.6,7.6,92,0.03,,,0.08,WUHU216HW,2013-01-15 21:35:00,
2013-01-15 15:40:00,34.6,32.4,30.10,ENE,68,4.5,7.2,92,0.03,,,0.08,WUHU216HW,2013-01-15 21:40:00,
2013-01-15 15:45:00,34.6,32.1,30.11,ENE,68,6.9,6.9,91,0.03,,,0.08,WUHU216HW,2013-01-15 21:45:00,
2013-01-15 15:50:00,34.7,32.3,30.11,ENE,68,2.7,6.9,91,0.02,,,0.08,WUHU216HW,2013-01-15 21:50:00,
2013-01-15 15:55:00,34.7,32.0,30.11,NE,45,4.3,6.9,90,0.02,,,0.08,WUHU216HW,2013-01-15 21:55:00,
2013-01-15 16:00:00,34.9,32.0,30.11,NE,45,6.9,6.9,89,0.03,,,0.09,WUHU216HW,2013-01-15 22:00:00,
2013-01-15 16:05:00,34.9,31.7,30.12,NE,45,6.0,6.9,88,0.03,,,0.09,WUHU216HW,2013-01-15 22:05:00,
2013-01-15 16:10:00,34.9,31.3,30.12,NE,45,3.4,6.9,87,0.03,,,0.09,WUHU216HW,2013-01-15 22:10:00,
2013-01-15 16:15:00,35.1,31.2,30.12,NNW,338,7.2,7.2,86,0.02,,,0.09,WUHU216HW,2013-01-15 22:15:00,
2013-01-15 16:20:00,35.3,31.4,30.12,NNE,23,4.0,7.2,86,0.02,,,0.09,WUHU216HW,2013-01-15 22:20:00,
2013-01-15 16:25:00,35.5,31.6,30.12,NNE,23,2.7,6.0,86,0.02,,,0.09,WUHU216HW,2013-01-15 22:25:00,
2013-01-15 16:30:00,35.5,31.6,30.12,North,0,4.7,6.0,86,0.02,,,0.09,WUHU216HW,2013-01-15 22:30:00,
2013-01-15 16:35:00,35.5,31.3,30.13,NNE,23,4.0,6.9,85,0.02,,,0.10,WUHU216HW,2013-01-15 22:35:00,
2013-01-15 16:40:00,35.5,31.6,30.12,North,0,6.3,6.9,86,0.02,,,0.10,WUHU216HW,2013-01-15 22:40:00,
2013-01-15 16:45:00,35.6,31.5,30.12,NNW,338,5.1,8.5,85,0.02,,,0.10,WUHU216HW,2013-01-15 22:45:00,
2013-01-15 16:50:00,35.6,31.2,30.12,NNE,23,6.9,10.5,84,0.02,,,0.10,WUHU216HW,2013-01-15 22:50:00,
2013-01-15 16:55:00,35.6,31.2,30.12,North,0,2.9,10.5,84,0.02,,,0.10,WUHU216HW,2013-01-15 22:55:00,
2013-01-15 17:00:00,35.6,30.6,30.12,NNE,23,5.8,5.8,82,0.01,,,0.10,WUHU216HW,2013-01-15 23:00:00,
2013-01-15 17:05:00,35.5,30.8,30.12,North,0,6.9,6.9,83,0.01,,,0.10,WUHU216HW,2013-01-15 23:05:00,
2013-01-15 17:10:00,35.5,30.8,30.13,NNE,23,5.4,6.9,83,0.01,,,0.10,WUHU216HW,2013-01-15 23:10:00,
2013-01-15 17:15:00,35.5,30.8,30.12,North,0,2.9,7.2,83,0.01,,,0.10,WUHU216HW,2013-01-15 23:15:00,
2013-01-15 17:20:00,35.5,30.8,30.12,North,0,3.6,7.2,83,0.01,,,0.10,WUHU216HW,2013-01-15 23:20:00,
2013-01-15 17:25:00,35.6,31.0,30.14,NNW,338,2.0,5.4,83,0.01,,,0.10,WUHU216HW,2013-01-15 23:25:00,
2013-01-15 17:30:00,35.6,31.2,30.14,NNE,23,2.5,5.4,84,0.00,,,0.10,WUHU216HW,2013-01-15 23:30:00,
2013-01-15 17:35:00,35.6,31.0,30.13,North,0,3.8,5.8,83,0.01,,,0.11,WUHU216HW,2013-01-15 23:35:00,
2013-01-15 17:40:00,35.6,31.0,30.14,North,0,2.9,5.8,83,0.01,,,0.11,WUHU216HW,2013-01-15 23:40:00,
2013-01-15 17:45:00,35.6,31.2,30.14,North,0,1.8,4.5,84,0.01,,,0.11,WUHU216HW,2013-01-15 23:45:00,
2013-01-15 17:50:00,35.6,31.0,30.15,NNE,23,3.4,3.4,83,0.01,,,0.11,WUHU216HW,2013-01-15 23:50:00,
2013-01-15 17:55:00,35.6,31.0,30.15,North,0,1.3,3.4,83,0.01,,,0.11,WUHU216HW,2013-01-15 23:55:00,
2013-01-15 18:00:00,35.6,31.0,30.16,NNE,23,1.8,2.7,83,0.01,,,0.11,WUHU216HW,2013-01-16 00:00:00,
2013-01-15 18:05:00,35.6,31.0,30.16,North,0,1.3,5.4,83,0.01,,,0.11,WUHU216HW,2013-01-16 00:05:00,
2013-01-15 18:10:00,35.6,30.6,30.16,NNE,23,2.9,5.4,82,0.01,,,0.11,WUHU216HW,2013-01-16 00:10:00,
2013-01-15 18:15:00,35.6,30.6,30.16,North,0,2.5,4.0,82,0.01,,,0.11,WUHU216HW,2013-01-16 00:15:00,
2013-01-15 18:20:00,35.8,30.5,30.15,NNW,338,1.6,3.8,81,0.01,,,0.11,WUHU216HW,2013-01-16 00:20:00,
2013-01-15 18:25:00,35.8,30.5,30.16,NNW,338,3.6,3.8,81,0.01,,,0.11,WUHU216HW,2013-01-16 00:25:00,
2013-01-15 18:30:00,35.6,30.6,30.16,North,0,0.2,3.8,82,0.01,,,0.11,WUHU216HW,2013-01-16 00:30:00,
2013-01-15 18:35:00,35.6,30.6,30.16,NW,315,2.7,3.4,82,0.00,,,0.11,WUHU216HW,2013-01-16 00:35:00,
2013-01-15 18:40:00,35.6,30.3,30.16,NNE,23,3.1,3.4,81,0.00,,,0.11,WUHU216HW,2013-01-16 00:40:00,
2013-01-15 18:45:00,35.6,30.6,30.16,NNE,23,1.8,3.1,82,0.00,,,0.11,WUHU216HW,2013-01-16 00:45:00,
2013-01-15 18:50:00,35.6,31.0,30.16,North,0,1.3,3.6,83,0.00,,,0.11,WUHU216HW,2013-01-16 00:50:00,
2013-01-15 18:55:00,35.6,31.0,30.16,North,0,2.7,3.8,83,0.00,,,0.11,WUHU216HW,2013-01-16 00:55:00,
2013-01-15 19:00:00,35.6,30.6,30.16,North,0,2.2,3.8,82,0.00,,,0.11,WUHU216HW,2013-01-16 01:00:00,
2013-01-15 19:05:00,35.6,31.0,30.16,NNE,23,1.6,3.4,83,0.00,,,0.11,WUHU216HW,2013-01-16 01:05:00,
2013-01-15 19:10:00,35.6,30.6,30.16,North,0,3.1,3.6,82,0.00,,,0.11,WUHU216HW,2013-01-16 01:10:00,
2013-01-15 19:15:00,35.6,30.6,30.15,North,0,1.1,3.6,82,0.00,,,0.11,WUHU216HW,2013-01-16 01:15:00,
2013-01-15 19:20:00,35.6,30.6,30.15,North,0,1.1,1.8,82,0.00,,,0.11,WUHU216HW,2013-01-16 01:20:00,
2013-01-15 20:00:00,35.8,30.5,30.17,NNW,338,0.2,0.2,81,0.00,,,0.11,WUHU216HW,2013-01-16 02:00:00,
2013-01-15 20:05:00,35.8,30.5,30.17,NNW,338,0.2,0.2,81,0.00,,,0.11,WUHU216HW,2013-01-16 02:05:00,
2013-01-15 21:00:00,36.2,30.2,30.17,NW,315,0.4,0.4,79,0.00,,,0.12,WUHU216HW,2013-01-16 03:00:00,
2013-01-15 21:05:00,36.2,30.2,30.17,NNW,338,0.2,2.5,79,0.00,,,0.12,WUHU216HW,2013-01-16 03:05:00,
2013-01-15 21:10:00,36.2,30.2,30.17,North,0,1.8,2.5,79,0.00,,,0.12,WUHU216HW,2013-01-16 03:10:00,
2013-01-15 21:15:00,36.2,30.2,30.17,NNW,338,1.8,3.4,79,0.00,,,0.12,WUHU216HW,2013-01-16 03:15:00,
2013-01-15 21:20:00,36.2,30.2,30.16,NNE,23,1.8,3.4,79,0.00,,,0.12,WUHU216HW,2013-01-16 03:20:00,
2013-01-15 21:25:00,36.0,30.4,30.17,North,0,2.7,2.7,80,0.00,,,0.12,WUHU216HW,2013-01-16 03:25:00,
2013-01-15 21:30:00,35.6,30.1,30.17,NNE,23,2.0,3.6,80,0.00,,,0.12,WUHU216HW,2013-01-16 03:30:00,
2013-01-15 21:35:00,35.5,29.9,30.16,NNE,23,2.5,3.6,80,0.00,,,0.12,WUHU216HW,2013-01-16 03:35:00,
2013-01-15 21:40:00,35.3,29.7,30.16,North,0,3.6,3.6,80,0.00,,,0.12,WUHU216HW,2013-01-16 03:40:00,
2013-01-15 21:45:00,35.3,29.7,30.15,NNE,23,1.6,3.6,80,0.00,,,0.12,WUHU216HW,2013-01-16 03:45:00,
2013-01-15 21:50:00,35.3,29.3,30.15,NNE,23,1.1,4.5,79,0.00,,,0.12,WUHU216HW,2013-01-16 03:50:00,
2013-01-15 21:55:00,35.3,29.3,30.14,North,0,1.1,5.6,79,0.00,,,0.12,WUHU216HW,2013-01-16 03:55:00,
2013-01-15 22:00:00,35.3,29.3,30.14,NNW,338,1.8,5.6,79,0.00,,,0.12,WUHU216HW,2013-01-16 04:00:00,
2013-01-15 22:05:00,34.9,29.3,30.14,NNW,338,0.4,5.4,80,0.00,,,0.12,WUHU216HW,2013-01-16 04:05:00,
2013-01-15 22:10:00,34.6,29.0,30.14,NNW,338,0.2,2.7,80,0.00,,,0.12,WUHU216HW,2013-01-16 04:10:00,
2013-01-15 22:15:00,34.4,29.1,30.15,North,0,1.1,1.8,81,0.00,,,0.12,WUHU216HW,2013-01-16 04:15:00,
2013-01-15 22:20:00,34.2,28.9,30.15,NNW,338,1.1,1.3,81,0.00,,,0.12,WUHU216HW,2013-01-16 04:20:00,
2013-01-15 22:25:00,34.2,28.9,30.15,NW,315,0.2,2.0,81,0.00,,,0.12,WUHU216HW,2013-01-16 04:25:00,
2013-01-15 22:30:00,34.2,28.6,30.15,NE,45,2.9,2.9,80,0.00,,,0.12,WUHU216HW,2013-01-16 04:30:00,
2013-01-15 22:35:00,34.2,28.6,30.14,WNW,293,1.6,3.1,80,0.00,,,0.12,WUHU216HW,2013-01-16 04:35:00,
2013-01-15 22:40:00,34.0,28.1,30.15,North,0,0.4,3.1,79,0.00,,,0.12,WUHU216HW,2013-01-16 04:40:00,
2013-01-15 22:45:00,34.0,28.1,30.16,NW,315,1.6,3.1,79,0.00,,,0.12,WUHU216HW,2013-01-16 04:45:00,
2013-01-15 22:50:00,34.0,27.8,30.15,North,0,2.5,3.4,78,0.00,,,0.12,WUHU216HW,2013-01-16 04:50:00,
2013-01-15 22:55:00,33.8,27.9,30.14,NNW,338,1.3,3.4,79,0.00,,,0.12,WUHU216HW,2013-01-16 04:55:00,
2013-01-15 23:00:00,33.5,27.9,30.14,NW,315,0.4,3.4,80,0.00,,,0.12,WUHU216HW,2013-01-16 05:00:00,
2013-01-15 23:02:00,33.5,27.9,30.15,North,0,0.2,3.4,80,0.00,,,0.12,WUHU216HW,2013-01-16 05:02:00,
2013-01-15 23:03:00,33.3,27.8,30.15,NW,315,0.9,3.4,80,0.00,,,0.12,WUHU216HW,2013-01-16 05:03:00,
2013-01-15 23:08:00,33.3,27.8,30.16,WNW,293,2.9,3.4,80,0.00,,,0.12,WUHU216HW,2013-01-16 05:08:00,
2013-01-15 23:13:00,33.3,27.5,30.16,NW,315,2.5,3.4,79,0.00,,,0.12,WUHU216HW,2013-01-16 05:13:00,
2013-01-15 23:18:00,33.3,27.5,30.16,NNW,338,2.2,3.4,79,0.00,,,0.12,WUHU216HW,2013-01-16 05:18:00,
2013-01-15 23:23:00,33.5,27.3,30.16,NW,315,1.1,2.7,78,0.00,,,0.12,WUHU216HW,2013-01-16 05:23:00,
2013-01-15 23:28:00,33.3,27.1,30.16,NW,315,2.5,2.7,78,0.00,,,0.12,WUHU216HW,2013-01-16 05:28:00,
2013-01-15 23:33:00,33.1,26.6,30.16,WNW,293,0.9,3.6,77,0.00,,,0.12,WUHU216HW,2013-01-16 05:33:00,
2013-01-15 23:38:00,33.1,26.3,30.16,NW,315,0.4,3.6,76,0.00,,,0.12,WUHU216HW,2013-01-16 05:38:00,
2013-01-15 23:43:00,33.1,26.6,30.16,NNE,23,2.0,2.0,77,0.00,,,0.12,WUHU216HW,2013-01-16 05:43:00,
2013-01-15 23:48:00,32.8,26.0,30.17,NW,315,1.8,2.0,76,0.00,,,0.12,WUHU216HW,2013-01-16 05:48:00,
2013-01-15 23:53:00,32.8,26.0,30.16,NNW,338,0.7,1.8,76,0.00,,,0.12,WUHU216HW,2013-01-16 05:53:00,
2013-01-15 23:58:00,32.8,26.0,30.16,NW,315,0.4,1.1,76,0.00,,,0.12,WUHU216HW,2013-01-16 05:58:00,